Greenville/Spartanburg, SC

11:06 AM EDT on April 23, 2017 (GMT -0400)
Greenville-Spartanburg International

Weather History for KGSP - September, 2013

Change the Weather History Date:

Friday, September 13, 2013

  Actual Average Record
Temperature  
Mean Temperature 76 °F 73 °F  
Max Temperature 86 °F 83 °F 96 °F (1962)
Min Temperature 65 °F 63 °F 48 °F (1917)
Degree Days  
Heating Degree Days 0 0  
Month to date heating degree days 0 0  
Since 1 July heating degree days 0 0  
Cooling Degree Days 11 8  
Month to date cooling degree days 161 129  
Year to date cooling degree days 1410 1564  
Growing Degree Days 26 (Base 50)    
Moisture  
Dew Point 60 °F    
Average Humidity 65    
Maximum Humidity 93    
Minimum Humidity 37    
Precipitation  
Precipitation 0.00 in 0.11 in 4.21 in (1966)
Month to date precipitation 0.02 1.54  
Year to date precipitation 54.37 34.05  
Snow  
Snow 0.00 in 0.00 in 0.00 in ()
Month to date snowfall 0.0 0.0  
Since 1 July snowfall 0.0 0.0  
Since 1 September snowfall 0.0 0.0  
Snow Depth 0.00 in    
Sea Level Pressure  
Sea Level Pressure 29.83 in    
Wind  
Wind Speed 6 mph (North)    
Max Wind Speed 14 mph    
Max Gust Speed 26 mph    
Visibility 10 miles    
Events      
T = Trace of Precipitation, MM = Missing Value Source: NWS Daily Summary

Daily Weather History Graph

Daily Weather History Graph

Search for Another Location

Airport or City:

Trip Planner

Search our weather history database for the weather conditions in past years. The results will help you decide how hot, cold, wet, or windy it might be!

Date:

Astronomy

Sep. 13, 2013 Rise Set
Actual Time 7:10 AM EDT 7:38 PM EDT
Civil Twilight 6:45 AM EDT 8:03 PM EDT
Nautical Twilight 6:15 AM EDT 8:33 PM EDT
Astronomical Twilight 5:44 AM EDT 9:03 PM EDT
Moon 3:17 PM EDT (9/13) 12:48 AM EDT (9/13)
Length of Visible Light 13h 18m
Length of Day
12h 27m
First Quarter, 61% of the Moon is Illuminated
Sep 13
First Quarter
Sep 19
Full
Sep 26
Last Quarter
Oct 4
New
Oct 11
First Quarter

Hourly Weather History & Observations

Time (EDT) Temp. Heat Index Dew Point Humidity Pressure Visibility Wind Dir Wind Speed Gust Speed Precip Events Conditions
12:53 AM 73.9 °F - 64.9 °F 73% 29.84 in 10.0 mi Calm Calm - N/A   Clear
1:53 AM 72.0 °F - 69.1 °F 91% 29.83 in 10.0 mi WNW 4.6 mph - N/A   Clear
2:53 AM 71.1 °F - 68.0 °F 90% 29.81 in 10.0 mi North 3.5 mph - N/A   Clear
3:53 AM 69.1 °F - 66.9 °F 93% 29.81 in 10.0 mi Calm Calm - N/A   Clear
4:53 AM 68.0 °F - 64.9 °F 90% 29.81 in 10.0 mi Calm Calm - N/A   Clear
5:53 AM 68.0 °F - 64.0 °F 87% 29.81 in 10.0 mi North 3.5 mph - N/A   Clear
6:53 AM 70.0 °F - 63.0 °F 78% 29.83 in 10.0 mi NNW 5.8 mph - N/A   Clear
7:53 AM 70.0 °F - 63.0 °F 78% 29.85 in 10.0 mi NNW 4.6 mph - N/A   Clear
8:53 AM 73.9 °F - 63.0 °F 68% 29.84 in 10.0 mi NNW 8.1 mph - N/A   Clear
9:53 AM 75.9 °F - 62.1 °F 62% 29.84 in 10.0 mi North 6.9 mph - N/A   Clear
10:53 AM 80.1 °F 81.2 °F 62.1 °F 54% 29.84 in 10.0 mi North 9.2 mph - N/A   Clear
11:53 AM 82.0 °F 82.1 °F 59.0 °F 45% 29.84 in 9.0 mi North 9.2 mph - N/A   Clear
12:53 PM 82.0 °F 82.0 °F 57.9 °F 44% 29.83 in 10.0 mi Variable 4.6 mph - N/A   Clear
1:53 PM 82.9 °F 82.6 °F 57.9 °F 42% 29.81 in 10.0 mi North 8.1 mph - N/A   Clear
2:53 PM 86.0 °F 85.0 °F 57.9 °F 38% 29.79 in 10.0 mi NNW 4.6 mph - N/A   Partly Cloudy
3:53 PM 86.0 °F 84.9 °F 57.0 °F 37% 29.78 in 10.0 mi NNE 4.6 mph - N/A   Partly Cloudy
4:53 PM 84.0 °F 83.3 °F 57.0 °F 40% 29.78 in 10.0 mi NNE 10.4 mph - N/A   Scattered Clouds
5:53 PM 80.1 °F 80.4 °F 57.0 °F 45% 29.78 in 10.0 mi NNE 9.2 mph - N/A   Mostly Cloudy
6:53 PM 78.1 °F - 55.0 °F 45% 29.80 in 10.0 mi North 9.2 mph - N/A   Clear
7:53 PM 75.0 °F - 53.1 °F 46% 29.82 in 10.0 mi North 8.1 mph - N/A   Mostly Cloudy
8:53 PM 73.0 °F - 50.0 °F 44% 29.84 in 10.0 mi North 9.2 mph 18.4 mph N/A   Overcast
9:53 PM 70.0 °F - 51.1 °F 51% 29.86 in 10.0 mi NE 5.8 mph - N/A   Scattered Clouds
10:53 PM 68.0 °F - 53.1 °F 59% 29.88 in 10.0 mi North - - N/A   Partly Cloudy
11:53 PM 66.0 °F - 52.0 °F 60% 29.88 in 10.0 mi North 6.9 mph - N/A   Partly Cloudy